[[{"header":{"parameterUnit":"m.s-1","parameterCategory":1,"la1":30.2991,"la2":30.254,"lo1":-89.0895,"lo2":-89.0444,"dy":0.0017,"dx":0.0017,"nx":28,"ny":28,"refTime":"2024-04-05T03:00:00:Z","depth":0,"parameterNumber":2,"parameterNumberName":"U-component_of_WINDS"},"data":[0,0,0,0,0,0,0,0,0,0,0,0,0,0,0,0,0,0,0,0,0,0,0,0,0,0,0,0,0,0,0,0,0,0,0,0,0,0,0,0,0,0,0,0,0,0,0,0,0,0,0,0,0,0,0,0,0,0,4.1153,4.1154,0,4.1294,4.1296,4.1298,4.1225,4.1222,4.1218,4.1214,4.1364,4.1371,4.1378,0,0,0,0,0,0,0,0,0,0,0,0,0,4.0824,4.0831,4.1152,4.1154,4.1156,4.1294,4.1296,4.1298,4.1226,4.1222,4.1217,4.1213,4.1361,4.137,4.1379,0,0,0,0,0,0,0,0,0,0,0,0,0,4.0967,4.0833,4.1152,4.1137,4.1137,4.1294,4.1296,4.1298,4.1227,4.1221,4.1216,4.1211,4.1358,4.1369,4.138,4.1562,0,0,4.1414,4.1419,0,0,0,0,0,0,0,0,4.0959,4.0979,4.1137,4.1138,4.1138,4.1236,4.1235,4.1387,4.1228,4.1193,4.1214,4.1208,4.1326,4.1339,4.1379,4.1569,4.1575,4.1415,4.1422,4.1427,4.143,0,0,0,0,0,0,0,4.0949,4.0972,4.1209,4.114,4.114,4.1124,4.1138,4.1263,4.1289,4.1196,4.1191,4.1208,4.1325,4.1368,4.1382,4.1577,4.1415,4.1425,4.1432,4.1436,4.1925,4.1931,0,0,0,0,0,0,4.0939,4.0965,4.1204,4.1213,4.1033,4.1135,4.115,4.1211,4.1288,4.1294,4.1213,4.1204,4.1352,4.1369,4.1386,4.1605,4.1427,4.1437,4.1444,4.1919,4.1927,4.1933,0,0,0,0,0,0,4.0932,4.0961,4.1198,4.1088,4.1116,4.1146,4.1215,4.1216,4.1259,4.1301,4.1305,4.1251,4.1348,4.1371,4.1519,4.1609,4.1442,4.1452,4.1912,4.1921,4.193,4.2044,0,0,0,0,0,0,4.0923,4.0959,4.1027,4.109,4.1123,4.1327,4.122,4.1223,4.1278,4.1268,4.1338,4.1344,4.1345,4.1502,4.153,4.1622,4.1461,4.1904,4.1916,4.1927,4.2032,4.2056,4.2076,0,0,0,0,0,4.0912,4.1054,4.1031,4.106,4.1208,4.1332,4.1352,4.1348,4.1285,4.1355,4.1382,4.1342,4.1595,4.1518,4.1548,4.1645,4.1898,4.1913,4.1926,4.2022,4.2051,4.2076,0,0,0,0,0,0,4.1003,4.1062,4.1037,4.1203,4.1263,4.132,4.1407,4.1379,4.1459,4.1447,4.1441,4.1457,4.1611,4.1643,4.1556,4.1826,4.1737,4.1758,4.1799,4.1827,4.1849,4.1839,4.147,0,0,0,0,0,4.1042,4.1137,4.1184,4.1326,4.1357,4.1378,4.1432,4.1424,4.1486,4.1512,4.155,4.1613,4.1707,4.1769,4.1857,4.2036,4.2051,4.2118,4.214,4.2158,4.2176,4.2275,4.2306,4.198,4.198,4.198,0,0,4.1124,4.1168,4.1229,4.1345,4.1391,4.1491,4.1399,4.1508,4.1583,4.1529,4.1671,4.1701,4.1772,4.1936,4.2011,4.1968,4.227,4.2176,4.219,4.2199,4.2293,4.2324,4.2351,4.199,4.1988,4.1986,0,0,4.1325,4.1368,4.1491,4.1539,4.1609,4.1622,4.1652,4.1713,4.1731,4.1873,4.1835,4.1924,4.2086,4.2138,4.2186,4.2408,4.2375,4.2438,4.2553,4.265,4.2675,4.2698,4.2779,4.2808,4.2456,4.2456,4.2456,0,4.1419,4.1567,4.1559,4.1672,4.1725,4.1679,4.1806,4.1853,4.1949,4.1988,4.1938,4.214,4.2184,4.2361,4.2416,4.2455,4.2491,4.243,4.2672,4.2695,4.2716,4.2793,4.2824,4.2463,4.2462,4.2461,4.2461,0,4.1679,4.1783,4.1874,4.1967,4.2031,4.215,4.2162,4.2228,4.2215,4.2234,4.2381,4.2432,4.2531,4.2573,4.2561,4.2749,4.272,4.2672,4.2582,4.2754,4.2827,4.2856,4.2473,4.2471,4.2469,4.2467,0,0,4.1941,4.2029,4.2063,4.2105,4.218,4.226,4.2378,4.2474,4.2531,4.26,4.2699,4.2838,4.2793,4.2848,4.2842,4.2927,4.3102,4.2868,4.2869,4.2911,4.3314,4.3351,4.3385,4.308,4.3086,4.309,4.3309,0,4.2149,4.2353,4.2351,4.2541,4.2637,4.2596,4.2699,4.2757,4.2779,4.2865,4.2888,4.2987,4.292,4.2953,4.3034,4.3063,4.3183,4.3047,4.3175,4.318,4.3159,4.3423,4.3462,4.3665,4.3337,4.3341,4.3345,0,4.2417,4.2494,4.2694,4.2755,4.2796,4.2888,4.2976,4.3059,4.3124,4.3134,4.3195,4.3177,4.3299,4.3206,4.3375,4.3283,4.3335,4.3358,4.3366,4.3378,4.3273,4.3444,4.373,4.3761,4.3389,4.3386,4.3383,0,4.259,4.2743,4.2883,4.292,4.2995,4.3061,4.3096,4.3156,4.3214,4.3292,4.333,4.3422,4.3472,4.3545,4.3552,4.3484,4.3724,4.363,4.3737,4.3737,4.3789,4.3786,4.4089,4.3822,4.3821,4.3821,4.382,0,4.2822,4.2947,4.2961,4.3048,4.3186,4.3183,4.3321,4.335,4.3404,4.3496,4.3467,4.3555,4.3559,4.365,4.3657,4.3797,4.382,4.3832,4.3833,4.3836,4.3834,4.387,4.3857,4.3829,4.3827,4.3825,4.3824,0,4.3039,4.3053,4.3203,4.3262,4.328,4.338,4.3431,4.3514,4.3532,4.365,4.3678,4.3707,4.3813,4.3827,4.3951,4.3956,4.4124,4.411,4.4102,4.41,4.4206,4.4196,4.4544,4.459,4.4291,4.4294,4.4296,0,4.3186,4.3281,4.335,4.3409,4.3447,4.3543,4.3602,4.3603,4.3667,4.3749,4.3823,4.3925,4.4007,4.4177,4.4211,4.4306,4.4294,4.4409,4.4308,4.4308,4.4297,4.4292,4.4302,4.4429,4.4432,4.4435,4.4437,0,4.3447,4.345,4.3536,4.3625,4.3697,4.3767,4.3834,4.3884,4.3894,4.3967,4.4073,4.4137,4.4263,4.4366,4.446,4.4497,4.447,4.4469,4.4498,4.4503,4.4495,4.4502,4.4156,4.4461,4.4458,4.4457,4.4455,4.4454,4.3635,4.3718,4.378,4.3877,4.3927,4.399,4.4071,4.4099,4.4188,4.429,4.4285,4.4404,4.4469,4.4592,4.4636,4.473,4.4692,4.4735,4.4746,4.4757,4.4768,4.4479,4.4747,4.4746,4.4746,4.4745,4.4745,0,4.3896,4.3933,4.4023,4.4116,4.4193,4.4159,4.4232,4.4299,4.4403,4.4465,4.4546,4.467,4.4769,4.4811,4.4909,4.4976,4.4967,4.5002,4.4998,4.5007,4.4795,4.476,4.5009,4.5009,4.5009,4.5008,4.5008,4.5008,4.404,4.4179,4.419,4.4354,4.4391,4.4505,4.455,4.4608,4.4658,4.4797,4.4879,4.4905,4.496,4.5062,4.5153,4.5163,4.5201,4.5243,4.5248,4.5049,4.5022,4.4997,4.4964,4.5251,4.5251,4.5452,4.5454,4.5455]},{"header":{"parameterUnit":"m.s-1","parameterCategory":1,"la1":30.2991,"la2":30.254,"lo1":-89.0895,"lo2":-89.0444,"dy":0.0017,"dx":0.0017,"nx":28,"ny":28,"refTime":"2024-04-05T03:00:00:Z","depth":0,"parameterNumber":3,"parameterNumberName":"V-component_of_WINDS"},"data":[0,0,0,0,0,0,0,0,0,0,0,0,0,0,0,0,0,0,0,0,0,0,0,0,0,0,0,0,0,0,0,0,0,0,0,0,0,0,0,0,0,0,0,0,0,0,0,0,0,0,0,0,0,0,0,0,0,0,-2.3618,-2.3619,0,-2.3722,-2.3723,-2.3724,-2.3743,-2.3742,-2.3741,-2.3741,-2.3847,-2.385,-2.3854,0,0,0,0,0,0,0,0,0,0,0,0,0,-2.3434,-2.3437,-2.3618,-2.3619,-2.362,-2.3722,-2.3723,-2.3725,-2.3743,-2.3742,-2.3741,-2.374,-2.3846,-2.385,-2.3854,0,0,0,0,0,0,0,0,0,0,0,0,0,-2.3524,-2.3439,-2.3617,-2.3642,-2.3645,-2.3721,-2.3723,-2.3725,-2.3744,-2.3742,-2.3741,-2.374,-2.3844,-2.385,-2.3855,-2.3914,0,0,-2.3872,-2.3874,0,0,0,0,0,0,0,0,-2.3519,-2.353,-2.3637,-2.364,-2.3644,-2.3718,-2.3698,-2.3788,-2.3744,-2.3706,-2.3741,-2.3739,-2.3805,-2.3814,-2.3836,-2.3919,-2.3924,-2.3872,-2.3875,-2.3878,-2.3879,0,0,0,0,0,0,0,-2.3512,-2.3526,-2.3659,-2.3638,-2.3643,-2.3647,-2.3659,-2.3715,-2.3761,-2.3709,-2.3711,-2.3723,-2.3807,-2.3831,-2.3839,-2.3925,-2.3872,-2.3877,-2.388,-2.3882,-2.4062,-2.4063,0,0,0,0,0,0,-2.3502,-2.3521,-2.3656,-2.3662,-2.3577,-2.3652,-2.3664,-2.3696,-2.3761,-2.377,-2.3724,-2.3723,-2.3822,-2.3832,-2.3843,-2.3916,-2.3878,-2.3883,-2.3886,-2.4061,-2.4062,-2.4064,0,0,0,0,0,0,-2.3498,-2.3514,-2.3651,-2.3592,-2.361,-2.3656,-2.3691,-2.3698,-2.3722,-2.3772,-2.378,-2.374,-2.3822,-2.3835,-2.3896,-2.392,-2.3885,-2.389,-2.4059,-2.4061,-2.4063,-2.4063,0,0,0,0,0,0,-2.3492,-2.3512,-2.3535,-2.3592,-2.3613,-2.3703,-2.3693,-2.3701,-2.3732,-2.3732,-2.3789,-2.3797,-2.3822,-2.3888,-2.3902,-2.3927,-2.3894,-2.4057,-2.406,-2.4062,-2.4061,-2.4065,-2.4068,0,0,0,0,0,-2.3486,-2.3531,-2.3536,-2.3552,-2.3643,-2.3705,-2.3716,-2.3743,-2.3734,-2.3757,-2.3789,-2.3796,-2.3915,-2.3894,-2.391,-2.3936,-2.4055,-2.4059,-2.4062,-2.4059,-2.4064,-2.4068,0,0,0,0,0,0,-2.3475,-2.3539,-2.3545,-2.361,-2.3652,-2.3708,-2.3738,-2.3748,-2.3793,-2.3791,-2.3822,-2.3835,-2.3895,-2.3922,-2.3897,-2.3997,-2.3985,-2.3991,-2.3977,-2.3982,-2.3985,-2.3977,-2.3899,0,0,0,0,0,-2.3481,-2.3526,-2.3579,-2.3631,-2.3652,-2.3691,-2.3719,-2.3736,-2.3781,-2.3798,-2.3835,-2.3877,-2.3925,-2.3955,-2.4001,-2.4065,-2.4078,-2.4091,-2.4095,-2.4098,-2.4103,-2.4138,-2.4145,-2.4075,-2.4075,-2.4075,0,0,-2.3492,-2.3532,-2.3559,-2.363,-2.3664,-2.371,-2.3706,-2.3755,-2.3789,-2.3806,-2.3866,-2.3894,-2.3944,-2.4006,-2.4036,-2.4031,-2.4125,-2.4102,-2.4104,-2.4107,-2.4142,-2.4149,-2.4154,-2.4077,-2.4077,-2.4077,0,0,-2.3535,-2.3571,-2.3618,-2.3652,-2.3704,-2.373,-2.3742,-2.3796,-2.3816,-2.3876,-2.389,-2.3931,-2.4012,-2.4046,-2.4075,-2.4132,-2.4139,-2.4146,-2.4164,-2.4198,-2.4204,-2.4209,-2.4228,-2.4235,-2.4151,-2.4151,-2.4151,0,-2.3542,-2.3612,-2.3641,-2.3689,-2.3719,-2.3737,-2.3785,-2.3817,-2.3881,-2.3902,-2.3896,-2.3997,-2.4032,-2.4103,-2.4117,-2.4139,-2.4153,-2.4139,-2.4201,-2.4206,-2.4211,-2.423,-2.4237,-2.4151,-2.4151,-2.4151,-2.4151,0,-2.3618,-2.3666,-2.3698,-2.376,-2.3794,-2.3842,-2.3877,-2.3909,-2.3923,-2.395,-2.4011,-2.4054,-2.4108,-2.4127,-2.4141,-2.42,-2.4195,-2.4194,-2.4182,-2.4217,-2.4236,-2.4243,-2.4152,-2.4152,-2.4152,-2.4152,0,0,-2.3657,-2.3734,-2.3745,-2.3773,-2.3832,-2.387,-2.3918,-2.3972,-2.3998,-2.4042,-2.4083,-2.4151,-2.4151,-2.4183,-2.4201,-2.4231,-2.4273,-2.4227,-2.4229,-2.4233,-2.4339,-2.4338,-2.4346,-2.4279,-2.428,-2.4281,-2.4335,0,-2.3707,-2.3794,-2.3821,-2.3893,-2.3938,-2.3956,-2.3998,-2.4038,-2.4065,-2.4106,-2.4136,-2.4183,-2.4179,-2.4199,-2.4229,-2.4261,-2.4294,-2.4258,-2.4316,-2.4318,-2.4302,-2.4356,-2.4356,-2.4404,-2.4342,-2.4343,-2.4344,0,-2.3777,-2.3822,-2.3898,-2.3951,-2.3971,-2.4008,-2.406,-2.4099,-2.4146,-2.4163,-2.4199,-2.4215,-2.4266,-2.4251,-2.4322,-2.4296,-2.4322,-2.4341,-2.4344,-2.435,-2.4332,-2.4362,-2.442,-2.4426,-2.4356,-2.4355,-2.4354,0,-2.3796,-2.3876,-2.3932,-2.3956,-2.4019,-2.4045,-2.4073,-2.4118,-2.4148,-2.4193,-2.4213,-2.4263,-2.4291,-2.4329,-2.4358,-2.4346,-2.4426,-2.4414,-2.4441,-2.444,-2.4456,-2.4455,-2.4518,-2.4475,-2.4474,-2.4474,-2.4474,0,-2.3848,-2.3894,-2.3942,-2.3976,-2.4028,-2.4059,-2.411,-2.4138,-2.4178,-2.4219,-2.4237,-2.4275,-2.4311,-2.4354,-2.4377,-2.4431,-2.4444,-2.4459,-2.4464,-2.4456,-2.4454,-2.4473,-2.447,-2.4476,-2.4476,-2.4475,-2.4475,0,-2.3879,-2.3912,-2.3975,-2.403,-2.4044,-2.408,-2.4127,-2.4161,-2.4189,-2.4239,-2.4253,-2.4296,-2.4346,-2.4379,-2.4444,-2.446,-2.4519,-2.4524,-2.4503,-2.4505,-2.453,-2.4527,-2.4606,-2.4618,-2.4567,-2.4568,-2.4568,0,-2.3909,-2.3945,-2.4004,-2.4032,-2.406,-2.4105,-2.4136,-2.4168,-2.42,-2.4255,-2.4282,-2.4334,-2.4377,-2.4457,-2.4494,-2.4543,-2.4549,-2.4574,-2.4557,-2.4548,-2.4548,-2.4545,-2.4549,-2.4576,-2.4576,-2.4577,-2.4577,0,-2.3959,-2.3974,-2.4019,-2.4069,-2.4105,-2.4147,-2.4188,-2.421,-2.4249,-2.4283,-2.4335,-2.4369,-2.4435,-2.4485,-2.4538,-2.4567,-2.4578,-2.4582,-2.4591,-2.4583,-2.4569,-2.4576,-2.4509,-2.458,-2.4579,-2.4579,-2.4579,-2.4579,-2.399,-2.4023,-2.4069,-2.4118,-2.4152,-2.419,-2.4224,-2.4256,-2.43,-2.4356,-2.4372,-2.4426,-2.4472,-2.4544,-2.4573,-2.4615,-2.4613,-2.4625,-2.4629,-2.4631,-2.463,-2.4563,-2.4625,-2.4625,-2.4625,-2.4625,-2.4625,0,-2.4041,-2.4071,-2.4116,-2.4173,-2.4211,-2.4219,-2.4265,-2.4296,-2.4343,-2.4385,-2.4427,-2.4486,-2.4536,-2.4577,-2.4628,-2.4654,-2.466,-2.4666,-2.4664,-2.467,-2.463,-2.4617,-2.466,-2.466,-2.466,-2.466,-2.466,-2.466,-2.4071,-2.4126,-2.4147,-2.4219,-2.425,-2.4303,-2.4328,-2.4363,-2.4396,-2.4462,-2.4503,-2.4529,-2.4571,-2.4625,-2.467,-2.4681,-2.4699,-2.4703,-2.4715,-2.4677,-2.4673,-2.4669,-2.4657,-2.4707,-2.4707,-2.4751,-2.4751,-2.4751]}]]